Regional Weather Roundup
Issued by NWS

Home | Current Version | Previous Version | Text Only | Print | Product List | Glossary On
Versions: 1 2 3 4 5 6 7 8 9 10 11 12 13 14 15 16 17 18 19 20 21 22 23 24 25 26 27 28 29 30 31 32 33 34 35 36 37 38 39 40 41 42 43 44 45 46 47 48 49 50
000
ASUS43 KMPX 281910
RWRMN
WEATHER ROUNDUP FOR MINNESOTA
NATIONAL WEATHER SERVICE TWIN CITIES/CHANHASSEN MN
200 PM CDT WED SEP 28 2016


NOTE: "FAIR" INDICATES FEW OR NO CLOUDS BELOW 12,000 FEET WITH NO
SIGNIFICANT WEATHER AND/OR OBSTRUCTIONS TO VISIBILITY. N/A MEANS
CURRENT SKY AND/OR WEATHER CONDITIONS ARE NOT AVAILABLE.

MNZ060>063-068>070-282000-
   Twin Cities Metro

CITY           SKY/WX    TMP DP  RH WIND       PRES   REMARKS
TWIN CITIES    CLOUDY    61  49  64 N12       30.20R
ST PAUL        CLOUDY    61  50  67 N12G18    30.20R
CRYSTAL        CLOUDY    62  48  60 N10       30.20R
BLAINE         CLOUDY    61  52  72 N16G22    30.21
LAKEVILLE      CLOUDY    59  50  72 N12       30.19S
EDEN PRAIRIE   CLOUDY    61  49  64 NE12      30.20R
LAKEVILLE      CLOUDY    59  50  72 N12       30.19S
SOUTH ST PAUL  CLOUDY    61  49  63 N12       30.19R
LAKE ELMO      CLOUDY    61  52  72 N10G16    30.20R
$$
MNZ001>005-007-008-013>017-022>024-027-028-282000-
   Northwest Minnesota

CITY           SKY/WX    TMP DP  RH WIND       PRES   REMARKS
BEMIDJI        CLOUDY    56  48  73 NE9       30.30R
HALLOCK        CLOUDY    57  48  72 CALM      30.32S
ROSEAU         CLOUDY    57  50  77 NW6       30.32R
WARROAD        CLOUDY    55  52  88 E7        30.33R
THIEF RVR FALL CLOUDY    58  47  66 VRB5      30.32R
CROOKSTON      PTSUNNY   59  48  67 N6        30.32R
FOSSTON        CLOUDY    57  55  94 NE5       30.31S
DETROIT LAKES  PTSUNNY   55  46  71 N7        30.30S
MOORHEAD       PTSUNNY   59  46  63 NW9       30.30S
PARK RAPIDS    CLOUDY    61  43  51 NE12G17   30.28R
MAHNOMEN       MOCLDY    57  47  67 NE7       30.29S
$$
MNZ006-009>011-018-025>026-282000-
   North Central Minnesota

CITY           SKY/WX    TMP DP  RH WIND       PRES   REMARKS
BAUDETTE       PTSUNNY   59  49  69 NW5       30.31S
INTL FALLS     CLOUDY    57  46  66 N8        30.31R
WASKISH        CLOUDY    57  50  77 NE5       30.31R
BIG FORK       CLOUDY    59  46  63 N5        30.29R
GRAND RAPIDS   CLOUDY    57  46  66 NE7       30.29R
ORR            CLOUDY    57  45  62 CALM      30.26S
COOK           CLOUDY    55  48  76 CALM      30.28S
WALKER         CLOUDY    56  47  73 NE5       30.29R
$$
MNZ012-019>021-037-282000-
   Northeast Minnesota

CITY           SKY/WX    TMP DP  RH WIND       PRES   REMARKS
DULUTH         CLOUDY    58  49  72 N8        30.24R
ELY            CLOUDY    55  46  71 NE3       30.27R
HIBBING        CLOUDY    56  47  71 N9        30.27R
EVELETH        CLOUDY    58  48  70 N7        30.27S
DULUTH HARBOR  CLOUDY    57  52  82 E12       30.25R
TWO HARBORS    PTSUNNY   61  52  72 NE6       30.22S
SILVER BAY     CLOUDY    59  50  72 NE7       30.23R
GRAND MARAIS     N/A     62  42  47 VRB5      30.22R
G MARAIS ARPRT CLOUDY    54  45  71 N10       30.25R
$$
MNZ029>031-032-039>041-046>048-054>057-064-282000-
   West Central Minnesota

CITY           SKY/WX    TMP DP  RH WIND       PRES   REMARKS
FERGUS FALLS   CLOUDY    59  46  63 NE6       30.30S
MORRIS         PTSUNNY   63  46  55 N9        30.26S
ALEXANDRIA     CLOUDY    61  47  59 N8        30.29R
ELBOW LAKE     PTSUNNY   57  47  67 NE7       30.28S
WADENA         CLOUDY    59  46  63 N6        30.27S
GLENWOOD       MOSUNNY   61  48  63 N10       30.27R
APPLETON       CLOUDY    61  46  59 N10       30.27R
BENSON         MOSUNNY   63  45  51 NE6       30.26R
ORTONVILLE     MOSUNNY   57  45  62 N3        30.28S
MADISON        CLOUDY    61  48  63 NW8       30.27S
WILLMAR        FAIR      63  50  63 NE7       30.26R
$$
MNZ033>034-036-042>043-049>051-058-059-282000-
   Central Minnesota

CITY           SKY/WX    TMP DP  RH WIND       PRES   REMARKS
ST CLOUD       CLOUDY    59  49  69 N10       30.24R
SAUK CENTRE    FAIR      60  48  63 N8        30.26R
PAYNESVILLE    PTSUNNY   62  48  59 NE8       30.25R
AITKIN         CLOUDY    61  46  59 NE9       30.25R
PINE RIVER     CLOUDY    57  48  72 NE7       30.30R
BRAINERD       CLOUDY    58  48  69 NE9       30.27R
STAPLES        PTSUNNY   59  46  63 NE5       30.27R
LONG PRAIRIE   PTSUNNY   59  46  63 N8        30.27R
LITTLE FALLS   CLOUDY    57  46  67 N5        30.26S
LITCHFIELD     PTSUNNY   63  50  63 N9        30.24S
BUFFALO        CLOUDY    59  48  67 N10G17    30.24R
MAPLE LAKE     CLOUDY    60  52  75 N9        30.24R
HUTCHINSON     CLOUDY    61  49  66 N10G20    30.24R
$$
MNZ037-044-045-052-053-282000-
   East Central Minnesota

CITY           SKY/WX    TMP DP  RH WIND       PRES   REMARKS
PRINCETON      CLOUDY    61  50  67 N8        30.23S
MORA           CLOUDY    59  46  63 N6        30.24S
CAMBRIDGE      CLOUDY    61  48  63 N6        30.21R
MOOSE LAKE     CLOUDY    59  46  63 NE9G16    30.22S
HINCKLEY       CLOUDY    59  50  72 NE6       30.23S
CLOQUET        CLOUDY    57  46  67 N12       30.24R
MCGREGOR       CLOUDY    55  46  71 N9        30.27R
$$
MNZ071>073-080-081-089-090-097-098-282000-
   Southwest Minnesota

CITY           SKY/WX    TMP DP  RH WIND       PRES   REMARKS
MONTEVIDEO     CLOUDY    64  48  55 N8        30.27S
GRANITE FALLS  CLOUDY    62  50  63 NW9       30.27R
CANBY          CLOUDY    55  47  73 N5        30.29S
MARSHALL       CLOUDY    56  46  69 N10       30.27S
REDWOOD FALLS  PTSUNNY   65  47  52 N12       30.23R
OLIVIA         PTSUNNY   63  48  59 NE8       30.23R
PIPESTONE      MOSUNNY   55  45  67 NE8       30.26R
WINDOM         CLOUDY    59  46  63 N14       30.23S
WORTHINGTON    CLOUDY    56  46  69 N13       30.24S
JACKSON        CLOUDY    61  45  55 N10G20    30.22S
TRACY          CLOUDY    58  48  70 N9        30.26S
$$
MNZ065>067-074>077-082>085-091>093-282000-
   South Central Minnesota

CITY           SKY/WX    TMP DP  RH WIND       PRES   REMARKS
MANKATO        CLOUDY    58  49  72 N15       30.21S
ST JAMES       CLOUDY    61  46  59 N8        30.23R
FAIRMONT       CLOUDY    59  46  62 N14G23    30.21R
GLENCOE        CLOUDY    60  52  74 N10G17    30.22R
FARIBAULT      CLOUDY    61  48  63 N15       30.19R
OWATONNA       PTSUNNY   61  48  63 N18       30.18R
WASECA         CLOUDY    55  46  71 N15G23    30.20R
ALBERT LEA     CLOUDY    57  48  72 N10G20    30.17R
$$
MNZ078>079-086>088-094>096-282000-
   Southeast Minnesota

CITY           SKY/WX    TMP DP  RH WIND       PRES   REMARKS
ROCHESTER      CLOUDY    60  50  69 N17       30.14R
RED WING       PTSUNNY   64  48  55 NE13G20   30.14R
STANTON        CLOUDY    61  50  67 N10G20    30.16R
DODGE CENTER   CLOUDY    61  48  63 N17       30.15R
WINONA         CLOUDY    61  48  63 NE12G20   30.12R
AUSTIN         CLOUDY    59  48  67 N15G22    30.15R
PRESTON        CLOUDY    59  48  67 N15       30.12R
$$
ABBREVIATIONS USED IN REMARKS
   TC - TEMPERATURES IN CELSIUS
  WCI - WIND CHILL INDEX
   HX - HEAT INDEX
  VSB - VISIBILITY
$$




USA.gov is the U.S. government's official web portal to all federal, state and local government web resources and services.